Wind_Speed
14 14 14 14 14 14 13 13 12 12 11 11 11 11 10 10 10 10 10 10 10 10 10 9 9 9 9 9 8 8 8 8 8 9 8 8 8 8 8 8 8 8 9
15 15 15 15 15 15 15 15 14 14 13 13 13 12 12 12 12 12 12 12 12 12 11 11 10 10 10 9 9 10 10 10 10 10 9 9 10 9 10 10 10 10 11
16 16 16 16 16 17 16 16 16 16 15 15 14 14 14 14 14 14 14 13 14 13 13 12 12 12 12 11 11 11 11 11 10 10 10 10 11 11 11 11 11 12 12
19 18 18 18 17 18 18 18 17 17 17 17 16 16 16 16 16 16 16 15 15 15 14 13 14 14 14 13 13 13 12 12 11 11 11 12 12 12 13 13 13 13 13
20 20 19 20 19 20 20 20 19 19 19 19 18 18 18 18 17 17 17 17 17 16 16 15 15 15 15 15 15 15 15 14 14 13 13 13 14 14 14 15 15 15 15
22 21 21 21 21 21 21 20 20 20 20 20 20 20 20 19 19 19 19 19 19 18 18 17 17 17 16 17 16 16 17 17 17 16 15 16 16 16 16 16 17 17 17
24 23 23 23 23 23 23 22 22 22 22 22 22 22 22 22 22 21 21 20 20 20 20 19 18 18 18 18 18 17 18 18 18 18 18 18 18 18 18 18 19 19 19
25 25 25 24 25 25 24 24 24 24 24 24 24 24 24 24 24 24 23 22 21 22 22 21 21 20 20 20 20 19 19 19 19 20 20 20 20 20 20 20 21 21 21
27 27 26 26 26 26 26 26 26 26 26 26 26 26 26 26 26 25 25 24 23 23 23 23 22 22 22 22 22 22 21 21 21 21 21 22 22 22 22 22 22 22 22
29 29 28 28 27 28 28 28 28 28 28 28 28 29 28 28 29 28 27 26 25 25 25 25 24 24 24 24 24 24 24 23 23 23 23 23 23 24 23 24 24 24 24
31 31 31 30 30 30 30 30 30 30 30 30 30 30 31 30 30 30 29 29 28 27 27 27 27 26 26 26 26 27 27 26 26 25 25 25 25 25 25 25 25 25 25
33 33 33 32 32 32 32 32 32 32 32 32 32 32 32 32 32 32 31 31 30 29 29 28 28 28 28 28 27 28 29 28 27 27 27 27 26 26 26 26 26 26 26
35 35 35 34 34 33 34 34 34 33 33 33 33 33 33 33 34 33 33 32 32 31 31 31 31 30 30 30 30 30 30 30 29 29 28 28 28 28 28 27 27 28 28
36 36 36 36 35 35 35 35 35 35 35 34 34 34 34 34 35 35 34 34 34 34 33 33 34 32 31 31 31 31 31 32 32 31 30 29 29 28 28 29 29 29 29
37 37 37 37 37 36 37 37 36 36 36 36 36 36 36 36 36 36 36 36 36 35 35 34 35 34 33 33 33 33 32 32 32 32 31 31 31 30 30 30 30 30 31
39 38 38 38 37 37 36 37 37 37 37 37 37 37 37 37 37 37 37 38 38 37 36 36 37 36 35 35 36 35 35 34 33 33 32 32 32 32 31 31 31 31 32
40 40 40 39 38 38 38 38 38 38 38 39 38 37 37 38 38 39 39 39 39 39 39 38 38 37 37 36 36 36 36 36 34 34 34 33 33 33 33 33 33 33 33
41 41 41 40 39 39 40 39 39 39 39 39 38 38 38 39 39 40 41 41 41 41 40 40 40 39 40 39 38 38 37 36 37 36 35 34 34 34 34 34 34 34 34
42 41 41 41 41 41 40 40 40 40 39 38 38 39 39 39 40 40 41 42 42 43 42 42 42 41 42 42 41 40 40 38 38 37 37 36 36 36 36 36 36 36 36
42 42 42 41 42 41 41 41 41 40 40 39 39 39 40 41 41 41 41 42 43 43 43 43 44 43 43 43 42 41 41 40 39 39 38 37 37 37 37 36 36 36 37
42 42 42 41 41 41 41 40 40 40 40 40 41 41 42 42 42 43 43 43 44 44 43 44 43 44 44 44 43 42 41 42 40 40 40 39 39 39 38 38 38 38 38
39 40 41 40 40 40 40 40 40 41 41 41 41 41 41 42 43 44 44 44 44 44 44 44 44 44 44 44 44 44 43 42 42 41 41 41 41 41 40 40 40 40 39
39 39 40 40 40 40 41 41 41 41 41 41 41 41 41 42 42 44 45 46 45 45 44 44 44 44 44 44 45 45 44 43 43 42 42 41 41 41 41 41 41 41 41
39 39 39 40 40 40 41 41 41 41 41 41 41 41 42 42 43 44 45 45 45 44 44 44 44 44 45 45 45 45 45 44 43 43 43 42 42 42 42 42 42 42 43
38 38 39 39 39 40 40 40 41 41 42 42 42 42 42 43 43 43 44 44 44 44 44 44 44 44 45 45 45 46 46 45 45 45 44 43 43 43 43 43 43 43 44
38 38 38 38 39 39 40 40 41 41 41 41 41 41 42 42 43 43 42 42 43 44 44 44 45 45 45 45 45 46 46 46 45 45 44 44 44 44 44 44 44 44 44
Wind_Direction
259 261 264 266 266 266 268 268 266 263 262 260 259 259 257 255 255 255 255 258 261 260 259 261 264 261 256 256 258 259 257 255 255 253 256 260 261 261 260 259 259 258 259
261 262 264 266 266 266 267 266 264 262 262 261 260 260 258 256 255 256 256 258 260 261 260 261 264 264 261 259 259 258 258 256 256 257 258 263 265 266 264 263 262 261 262
261 262 264 265 265 264 265 264 263 262 262 261 259 259 258 257 257 257 258 258 260 261 262 262 263 263 262 261 260 258 261 260 260 259 260 262 263 265 266 267 265 265 266
260 261 263 264 265 264 264 263 262 262 261 260 259 259 258 256 257 258 258 258 259 260 260 260 262 263 263 261 261 259 259 261 261 261 261 262 262 263 265 266 266 266 266
260 261 263 264 265 266 266 263 261 261 261 258 258 258 258 258 256 257 259 259 258 259 259 258 259 262 264 263 262 260 257 258 261 262 262 263 263 263 264 265 265 266 267
260 261 263 263 263 264 265 263 261 261 260 259 258 259 259 259 257 257 259 260 259 259 259 260 259 260 263 265 264 262 259 259 261 262 262 263 264 265 265 265 266 267 267
260 260 262 261 261 262 263 263 262 260 260 260 260 260 261 260 258 258 258 259 260 261 261 261 261 260 260 262 262 264 262 261 262 263 264 264 265 266 266 266 267 267 268
261 261 261 262 261 261 260 261 261 260 260 260 261 261 260 260 259 258 258 259 259 259 260 260 261 261 260 261 261 263 263 262 264 265 265 266 265 266 266 267 267 268 267
262 261 261 262 262 261 261 260 261 260 259 260 260 260 260 259 259 259 258 258 258 258 259 260 260 261 261 262 263 262 263 264 264 265 266 266 266 267 267 267 267 267 267
262 261 261 261 262 262 262 261 261 260 260 260 259 259 259 258 258 258 258 257 257 257 259 260 260 261 262 263 263 263 263 265 266 266 266 267 267 267 268 268 266 266 266
262 261 261 262 263 263 263 262 262 261 260 260 259 259 259 258 257 257 257 257 257 257 257 260 261 262 263 264 264 263 264 265 265 267 266 266 267 267 267 268 268 267 266
261 261 261 262 263 264 263 262 261 260 259 259 259 259 258 257 256 255 255 257 257 257 257 258 260 261 263 264 265 265 264 264 265 265 266 266 267 267 267 266 267 267 266
261 261 261 261 262 263 263 262 261 260 258 258 258 257 257 256 255 254 254 255 256 256 257 258 259 261 262 264 264 265 266 264 264 265 265 266 267 267 267 266 266 267 266
262 262 262 262 262 263 262 262 261 260 258 258 257 257 256 255 254 254 254 254 255 256 256 257 258 260 261 262 264 265 265 266 265 265 265 265 266 267 267 267 266 267 267
261 261 261 262 263 263 262 262 261 260 259 258 257 257 256 255 254 253 253 254 255 256 256 257 259 260 261 263 266 266 266 266 265 264 264 264 264 266 267 268 267 267 267
260 260 261 262 262 262 261 261 260 259 259 258 257 257 256 255 254 253 253 253 254 255 256 257 258 260 263 265 266 267 266 266 263 262 263 264 264 265 266 267 267 267 267
260 260 261 261 261 261 261 260 260 259 258 258 258 258 256 255 254 253 253 254 254 255 256 257 257 259 262 265 266 267 268 266 262 261 262 263 263 264 266 267 267 267 268
260 260 261 261 261 261 261 260 259 259 258 257 257 257 256 255 255 255 255 255 255 255 256 257 258 260 261 264 266 266 266 266 263 262 261 261 263 264 265 266 267 267 268
261 260 261 261 261 261 261 259 257 257 257 256 256 256 256 256 256 256 255 256 256 257 258 258 259 261 262 263 265 265 265 265 264 263 262 262 263 265 265 266 266 267 267
261 261 261 261 261 260 259 257 256 256 256 256 255 255 256 256 256 257 258 257 258 259 259 260 261 262 263 265 265 265 263 264 264 263 263 264 264 265 265 264 265 265 268
261 262 261 261 260 258 257 256 256 256 256 256 255 255 256 257 257 258 258 258 258 258 259 261 262 262 263 264 264 265 264 264 265 265 263 264 265 265 263 263 264 266 268
262 261 260 259 259 258 257 257 257 256 255 256 257 258 258 257 258 259 258 258 259 259 260 261 262 262 263 264 264 265 265 266 265 265 265 265 265 265 264 263 264 265 267
260 259 258 258 259 259 259 259 258 258 257 257 258 259 258 258 259 259 259 259 259 260 261 262 262 262 263 263 264 264 264 265 265 265 266 267 267 266 265 265 265 265 267
259 258 257 258 259 260 260 260 259 259 259 259 259 259 259 258 258 260 261 261 260 260 260 262 262 262 262 262 263 263 264 264 265 265 265 267 267 268 268 266 266 266 267
261 259 258 259 260 260 260 260 260 260 260 261 260 260 260 259 259 260 261 261 260 259 260 261 261 261 261 261 262 263 263 263 265 265 265 265 266 268 267 266 267 267 267
261 260 260 260 260 260 260 261 261 261 261 261 261 261 260 260 259 259 260 261 261 259 259 259 260 260 259 260 262 262 263 263 265 265 265 265 266 267 267 267 267 268 268
Height
5832 5832 5833 5833 5834 5834 5834 5835 5835 5836 5837 5837 5838 5839 5840 5840 5841 5842 5843 5844 5844 5845 5846 5846 5847 5848 5848 5849 5849 5850 5851 5852 5852 5853 5853 5854 5854 5855 5856 5856 5857 5857 5858
5829 5830 5830 5830 5831 5831 5832 5832 5833 5834 5834 5835 5836 5837 5837 5838 5839 5840 5841 5842 5842 5843 5844 5844 5845 5846 5846 5847 5848 5849 5849 5850 5850 5851 5852 5852 5853 5853 5854 5855 5855 5856 5856
5826 5826 5827 5827 5827 5828 5829 5829 5830 5830 5831 5832 5833 5834 5835 5836 5837 5837 5838 5839 5840 5841 5842 5842 5843 5844 5844 5845 5846 5847 5847 5848 5848 5849 5850 5850 5851 5851 5852 5852 5853 5854 5854
5822 5823 5823 5823 5824 5824 5825 5826 5826 5827 5828 5829 5830 5831 5832 5833 5834 5835 5835 5836 5837 5838 5839 5840 5840 5841 5842 5843 5843 5844 5845 5846 5846 5847 5847 5848 5849 5849 5850 5850 5851 5851 5851
5818 5819 5819 5820 5820 5820 5821 5822 5822 5823 5824 5825 5826 5827 5828 5829 5830 5832 5832 5833 5834 5834 5835 5837 5837 5838 5839 5840 5840 5841 5842 5843 5844 5844 5845 5845 5846 5847 5847 5848 5848 5848 5849
5814 5814 5815 5815 5816 5816 5817 5817 5818 5819 5820 5821 5822 5823 5824 5826 5827 5828 5829 5830 5830 5831 5832 5833 5834 5835 5836 5837 5837 5838 5839 5840 5840 5841 5842 5843 5843 5844 5844 5845 5845 5845 5846
5809 5809 5810 5811 5811 5811 5812 5813 5813 5814 5815 5816 5817 5819 5820 5821 5822 5823 5825 5826 5827 5827 5828 5830 5831 5832 5832 5833 5834 5835 5835 5836 5837 5838 5839 5839 5840 5840 5841 5841 5842 5842 5842
5804 5804 5805 5805 5806 5806 5807 5808 5808 5809 5810 5811 5813 5814 5815 5816 5817 5819 5820 5821 5822 5823 5824 5825 5826 5827 5828 5829 5830 5831 5831 5832 5833 5834 5835 5835 5836 5836 5837 5837 5838 5838 5838
5798 5799 5799 5800 5800 5801 5801 5802 5803 5804 5805 5806 5807 5808 5810 5811 5812 5813 5815 5816 5818 5819 5820 5821 5822 5823 5824 5825 5826 5827 5827 5828 5829 5830 5830 5831 5831 5832 5832 5833 5833 5833 5834
5792 5793 5793 5794 5794 5795 5795 5796 5797 5798 5798 5800 5801 5802 5804 5805 5807 5808 5810 5811 5812 5813 5815 5816 5816 5818 5819 5820 5821 5822 5823 5824 5824 5825 5826 5826 5827 5827 5827 5828 5828 5829 5829
5786 5786 5787 5788 5788 5788 5789 5789 5790 5791 5792 5793 5794 5796 5798 5799 5801 5802 5804 5805 5807 5808 5809 5810 5811 5812 5814 5815 5816 5817 5818 5818 5819 5820 5821 5821 5821 5822 5822 5823 5823 5823 5824
5778 5779 5780 5780 5781 5781 5782 5782 5783 5783 5785 5786 5787 5789 5791 5792 5794 5796 5798 5799 5800 5802 5803 5804 5806 5807 5808 5809 5810 5811 5812 5813 5813 5814 5815 5815 5816 5816 5817 5817 5817 5818 5818
5770 5771 5772 5773 5773 5773 5774 5774 5774 5775 5777 5778 5780 5781 5783 5785 5787 5789 5791 5792 5794 5795 5797 5798 5800 5801 5802 5803 5804 5805 5806 5807 5807 5808 5809 5809 5810 5810 5811 5811 5812 5812 5812
5762 5763 5764 5764 5765 5765 5765 5765 5766 5767 5769 5770 5772 5774 5776 5777 5779 5781 5783 5785 5787 5789 5790 5792 5793 5794 5795 5796 5797 5798 5799 5800 5800 5801 5802 5802 5803 5804 5805 5805 5805 5806 5806
5753 5754 5755 5756 5756 5756 5756 5757 5757 5759 5760 5762 5764 5766 5768 5770 5772 5773 5775 5777 5779 5781 5783 5784 5786 5787 5788 5789 5790 5791 5791 5792 5793 5794 5795 5795 5796 5797 5798 5798 5799 5799 5800
5744 5745 5746 5747 5747 5747 5748 5748 5749 5751 5752 5754 5756 5757 5759 5761 5763 5766 5768 5770 5771 5773 5775 5777 5778 5779 5780 5782 5782 5783 5784 5785 5786 5787 5787 5788 5789 5790 5791 5791 5792 5792 5792
5735 5736 5737 5737 5738 5739 5739 5740 5741 5742 5744 5746 5747 5749 5751 5753 5755 5757 5759 5761 5763 5765 5767 5768 5770 5771 5772 5773 5774 5775 5776 5777 5778 5779 5780 5780 5781 5782 5783 5784 5784 5785 5785
5726 5727 5727 5728 5729 5730 5730 5731 5732 5733 5735 5737 5739 5740 5742 5744 5746 5748 5750 5752 5754 5756 5758 5759 5761 5762 5763 5764 5765 5766 5767 5768 5770 5771 5772 5773 5774 5774 5775 5776 5776 5777 5777
5716 5717 5718 5718 5719 5720 5721 5722 5723 5724 5726 5728 5730 5731 5733 5734 5736 5739 5741 5743 5745 5746 5748 5750 5751 5753 5754 5755 5756 5757 5758 5760 5761 5762 5763 5764 5765 5766 5767 5767 5768 5769 5769
5706 5707 5708 5708 5709 5710 5711 5712 5713 5715 5717 5718 5720 5722 5723 5725 5727 5729 5731 5733 5735 5737 5738 5740 5742 5743 5745 5746 5747 5748 5749 5750 5752 5753 5754 5755 5756 5757 5758 5758 5759 5760 5760
5695 5696 5697 5698 5699 5700 5701 5703 5704 5706 5707 5709 5710 5711 5714 5716 5717 5719 5721 5723 5725 5727 5729 5730 5732 5734 5735 5736 5737 5738 5740 5741 5742 5743 5745 5745 5746 5747 5748 5749 5750 5751 5751
5684 5686 5687 5688 5689 5690 5692 5693 5694 5696 5698 5699 5701 5702 5704 5705 5707 5709 5711 5713 5714 5716 5718 5720 5722 5723 5725 5726 5727 5728 5730 5732 5733 5734 5735 5736 5737 5737 5738 5739 5740 5741 5742
5674 5675 5677 5678 5679 5680 5682 5683 5684 5686 5688 5689 5690 5692 5693 5695 5697 5698 5700 5701 5703 5706 5708 5709 5711 5713 5714 5716 5717 5718 5720 5722 5723 5724 5725 5726 5726 5727 5728 5729 5730 5731 5732
5665 5666 5667 5668 5670 5671 5672 5673 5675 5676 5678 5679 5681 5682 5683 5684 5686 5688 5689 5690 5692 5694 5696 5698 5700 5702 5703 5705 5706 5707 5709 5711 5712 5714 5715 5715 5716 5717 5718 5718 5719 5720 5721
5655 5656 5657 5659 5660 5661 5662 5663 5664 5666 5667 5669 5670 5671 5673 5674 5675 5676 5678 5679 5681 5683 5685 5687 5689 5690 5692 5694 5695 5697 5698 5699 5701 5702 5704 5705 5705 5706 5706 5707 5708 5708 5709
5646 5647 5648 5649 5650 5651 5652 5653 5654 5655 5657 5658 5659 5660 5661 5663 5664 5666 5667 5668 5670 5671 5673 5675 5677 5679 5681 5682 5684 5686 5687 5689 5690 5691 5692 5693 5694 5695 5695 5696 5697 5697 5697